EW6434 Weather Reports


time (UTC)temp
C
wind
direction
speed
KPH
gust
KPH
rain 1hr
cm
rain 24hr
cm
rain mn
cm
humidity
%
barometer
mb
20260906231535 20 138 0.0 4.8 0.00 0.00 0.00 40 1010.2
20260906230034 20 160 0.0 1.6 0.00 0.00 0.00 39 1010.5
20260906224540 20 245 0.0 0.0 0.00 0.00 0.00 39 1010.4
20260906223042 21 303 0.0 8.0 0.00 0.00 0.00 36 1010.4
20260906221538 21 175 0.0 3.2 0.00 0.00 0.00 37 1010.4
20260906220033 22 231 0.0 3.2 0.00 0.00 0.00 36 1010.3
20260906214531 22 257 0.0 1.6 0.00 0.00 0.00 34 1010.4
20260906213030 22 266 0.0 1.6 0.00 0.00 0.00 35 1010.4
20260906211530 23 259 0.0 4.8 0.00 0.00 0.00 32 1010.5
20260906210027 24 257 0.0 6.4 0.00 0.00 0.00 31 1010.5
20260906204541 23 199 0.0 11.3 0.00 0.00 0.00 33 1010.8
20260906203024 23 267 0.0 12.9 0.00 0.00 0.00 32 1010.9
20260906201524 23 147 0.0 4.8 0.00 0.00 0.00 33 1010.9
20260906200021 22 226 0.0 9.7 0.00 0.00 0.00 39 1011.2
20260906194519 21 128 1.6 8.0 0.00 0.00 0.00 35 1011.4
20260906193020 22 182 0.0 8.0 0.00 0.00 0.00 35 1011.3
20260906191517 22 103 0.0 6.4 0.00 0.00 0.00 37 1011.8
20260906190016 21 138 0.0 4.8 0.00 0.00 0.00 37 1011.7
20260906184515 22 269 0.0 6.4 0.00 0.00 0.00 35 1011.8
20260906183014 22 252 0.0 6.4 0.00 0.00 0.00 38 1012.0
20260906181513 22 213 3.2 12.9 0.00 0.00 0.00 35 1012.4
20260906180009 22 152 3.2 12.9 0.00 0.00 0.00 36 1012.6
20260906174505 22 176 0.0 8.0 0.00 0.00 0.00 36 1012.8
20260906173003 21 18 0.0 4.8 0.00 0.00 0.00 36 1013.2
20260906171604 20 273 0.0 0.0 0.00 0.00 0.00 39 1013.4
20260906170110 19 248 0.0 0.0 0.00 0.00 0.00 38 1013.8
20260906164551 18 248 0.0 0.0 0.00 0.00 0.00 47 1014.0
20260906163056 15 257 0.0 0.0 0.00 0.00 0.00 57 1014.3
20260906161545 14 234 0.0 0.0 0.00 0.00 0.00 60 1014.4
20260906160050 13 235 0.0 0.0 0.00 0.00 0.00 60 1014.5
20260906154536 12 235 0.0 0.0 0.00 0.00 0.00 60 1014.6
20260906153037 10 235 0.0 0.0 0.00 0.00 0.00 71 1014.9
20260906151529 10 235 0.0 0.0 0.00 0.00 0.00 73 1015.2
20260906150027 8 235 0.0 0.0 0.00 0.00 0.00 74 1015.1
20260906144523 7 235 0.0 0.0 0.00 0.00 0.00 77 1015.3
20260906143021 5 137 0.0 0.0 0.00 0.00 0.00 84 1015.5
20260906141523 4 137 0.0 0.0 0.00 0.00 0.00 84 1015.7
20260906140022 3 137 0.0 0.0 0.00 0.00 0.00 82 1015.8
20260906134519 3 137 0.0 0.0 0.00 0.00 0.00 83 1015.7
20260906133018 3 137 0.0 0.0 0.00 0.00 0.00 81 1015.6
20260906131516 3 137 0.0 0.0 0.00 0.00 0.00 82 1015.5
20260906130014 3 173 0.0 0.0 0.00 0.00 0.00 81 1015.0
20260906124513 3 173 0.0 0.0 0.00 0.00 0.00 80 1015.0
20260906123112 3 173 0.0 0.0 0.00 0.00 0.00 81 1014.9
20260906121515 3 173 0.0 0.0 0.00 0.00 0.00 82 1014.9
20260906120010 3 173 0.0 0.0 0.00 0.00 0.00 80 1015.1
20260906114518 3 173 0.0 0.0 0.00 0.00 0.00 79 1015.0
20260906113012 3 141 0.0 0.0 0.00 0.00 0.00 79 1015.1
20260906111506 3 179 0.0 0.0 0.00 0.00 0.00 79 1014.7
20260906110005 3 179 0.0 0.0 0.00 0.00 0.00 79 1014.7
20260906104503 4 179 0.0 0.0 0.00 0.00 0.00 79 1014.7
20260906103001 4 179 0.0 0.0 0.00 0.00 0.00 79 1014.6
20260906101600 4 179 0.0 0.0 0.00 0.00 0.00 78 1014.5
20260906100058 4 179 0.0 0.0 0.00 0.00 0.00 78 1014.4
20260906094558 5 179 0.0 0.0 0.00 0.00 0.00 78 1014.5
20260906093057 5 100 0.0 0.0 0.00 0.00 0.00 80 1014.4
20260906091554 5 100 0.0 0.0 0.00 0.00 0.00 79 1014.0
20260906090056 5 101 0.0 0.0 0.00 0.00 0.00 79 1013.9
20260906084552 5 101 0.0 0.0 0.00 0.00 0.00 79 1014.1
20260906083052 5 101 0.0 0.0 0.00 0.00 0.00 79 1014.2
20260906081547 5 100 0.0 0.0 0.00 0.00 0.00 79 1014.2
20260906080047 6 101 0.0 0.0 0.00 0.00 0.00 79 1014.3
20260906074544 6 100 0.0 0.0 0.00 0.00 0.00 78 1014.3
20260906073041 6 101 0.0 0.0 0.00 0.00 0.00 77 1014.3
20260906071540 6 100 0.0 0.0 0.00 0.00 0.00 78 1014.4
20260906070041 6 101 0.0 0.0 0.00 0.00 0.00 77 1014.4
20260906064537 6 101 0.0 0.0 0.00 0.00 0.00 77 1014.6
20260906063034 7 100 0.0 0.0 0.00 0.00 0.00 76 1014.4
20260906061535 7 100 0.0 0.0 0.00 0.00 0.00 74 1014.3
20260906060033 7 100 0.0 0.0 0.00 0.00 0.00 75 1014.2
20260906054542 7 100 0.0 0.0 0.00 0.00 0.00 75 1014.2
20260906053029 8 100 0.0 0.0 0.00 0.00 0.00 74 1014.3
20260906051528 8 101 0.0 0.0 0.00 0.00 0.00 73 1014.2
20260906050028 8 100 0.0 0.0 0.00 0.00 0.00 71 1014.0
20260906044528 9 100 0.0 0.0 0.00 0.00 0.00 70 1014.0
20260906043027 9 101 0.0 0.0 0.00 0.00 0.00 70 1013.9
20260906041530 10 100 0.0 0.0 0.00 0.00 0.00 69 1013.9
20260906040049 10 101 0.0 0.0 0.00 0.00 0.00 68 1013.7
20260906034526 10 101 0.0 0.0 0.00 0.00 0.00 68 1013.3
20260906033039 11 100 0.0 0.0 0.00 0.00 0.00 64 1013.1
20260906031525 11 100 0.0 0.0 0.00 0.00 0.00 63 1012.8
20260906030026 12 100 0.0 0.0 0.00 0.00 0.00 63 1012.6
20260906024524 12 100 0.0 0.0 0.00 0.00 0.00 61 1012.3
20260906023024 13 100 0.0 0.0 0.00 0.00 0.00 58 1012.1
20260906021523 13 100 0.0 0.0 0.00 0.00 0.00 56 1011.7
20260906020022 14 100 0.0 0.0 0.00 0.00 0.00 54 1011.5
20260906014526 15 100 0.0 0.0 0.00 0.00 0.00 53 1011.2
20260906013021 16 100 0.0 0.0 0.00 0.00 0.00 47 1011.1
20260906011520 17 100 0.0 0.0 0.00 0.00 0.00 44 1010.8
20260906010020 18 101 0.0 0.0 0.00 0.00 0.00 42 1010.8
20260906004519 18 100 0.0 3.2 0.00 0.00 0.00 40 1010.6
20260906003018 20 25 0.0 1.6 0.00 0.00 0.00 37 1010.5
20260906001517 21 277 0.0 8.0 0.00 0.00 0.00 35 1010.4
20260906000018 22 133 0.0 3.2 0.00 0.00 0.00 34 1010.3
20260905234518 22 335 0.0 6.4 0.00 0.00 0.00 33 1010.2
20260905233014 23 89 0.0 6.4 0.00 0.00 0.00 32 1010.2